[[{"header":{"parameterUnit":"m.s-1","parameterCategory":1,"la1":30.2991,"la2":30.254,"lo1":-89.0895,"lo2":-89.0444,"dy":0.0017,"dx":0.0017,"nx":28,"ny":28,"refTime":"2025-08-09T03:00:00:Z","depth":0,"parameterNumber":2,"parameterNumberName":"U-component_of_WINDS"},"data":[0,0,0,0,0,0,0,0,0,0,0,0,0,0,0,0,0,0,0,0,0,0,0,0,0,0,0,0,0,0,0,0,0,0,0,0,0,0,0,0,0,0,0,0,0,0,0,0,0,0,0,0,0,0,0,0,0,0,-4.3244,-4.3245,0,-4.3361,-4.3362,-4.3363,-4.33,-4.3297,-4.3293,-4.329,-4.3413,-4.342,-4.3426,0,0,0,0,0,0,0,0,0,0,0,0,0,-4.2967,-4.2972,-4.3244,-4.3245,-4.3247,-4.3361,-4.3362,-4.3364,-4.33,-4.3296,-4.3293,-4.3289,-4.3411,-4.3419,-4.3426,0,0,0,0,0,0,0,0,0,0,0,0,0,-4.3086,-4.2974,-4.3243,-4.3228,-4.3228,-4.336,-4.3362,-4.3364,-4.3301,-4.3296,-4.3292,-4.3287,-4.3409,-4.3418,-4.3427,-4.3582,0,0,-4.3456,-4.346,0,0,0,0,0,0,0,0,-4.3079,-4.3096,-4.3229,-4.323,-4.323,-4.3311,-4.331,-4.3437,-4.3302,-4.3274,-4.329,-4.3285,-4.3383,-4.3395,-4.3427,-4.3587,-4.3593,-4.3457,-4.3463,-4.3467,-4.3469,0,0,0,0,0,0,0,-4.3071,-4.3091,-4.329,-4.3231,-4.3232,-4.3217,-4.3228,-4.3334,-4.3354,-4.3276,-4.3271,-4.3286,-4.3383,-4.3418,-4.343,-4.3594,-4.3457,-4.3465,-4.3471,-4.3474,-4.3886,-4.3892,0,0,0,0,0,0,-4.3063,-4.3084,-4.3286,-4.3293,-4.3141,-4.3226,-4.3238,-4.329,-4.3353,-4.3358,-4.329,-4.3283,-4.3405,-4.3419,-4.3434,-4.3618,-4.3467,-4.3475,-4.3481,-4.3881,-4.3888,-4.3893,0,0,0,0,0,0,-4.3058,-4.3082,-4.3282,-4.3188,-4.3212,-4.3235,-4.3293,-4.3294,-4.333,-4.3363,-4.3367,-4.3323,-4.3401,-4.342,-4.3545,-4.3621,-4.348,-4.3488,-4.3875,-4.3883,-4.3891,-4.3988,0,0,0,0,0,0,-4.305,-4.308,-4.3139,-4.319,-4.3217,-4.339,-4.3298,-4.33,-4.3346,-4.3337,-4.3395,-4.34,-4.3399,-4.3531,-4.3554,-4.3632,-4.3495,-4.3868,-4.3879,-4.3888,-4.3978,-4.3999,-4.4016,0,0,0,0,0,-4.304,-4.3162,-4.3142,-4.3167,-4.3291,-4.3395,-4.3411,-4.3407,-4.3352,-4.3412,-4.3433,-4.3398,-4.3609,-4.3545,-4.357,-4.3652,-4.3863,-4.3876,-4.3887,-4.397,-4.3995,-4.4016,0,0,0,0,0,0,-4.3121,-4.3169,-4.3147,-4.3289,-4.3338,-4.3384,-4.3458,-4.3433,-4.35,-4.3489,-4.3482,-4.3495,-4.3625,-4.365,-4.3577,-4.3804,-4.3728,-4.3746,-4.3782,-4.3806,-4.3825,-4.3816,-4.3503,0,0,0,0,0,-4.3155,-4.3235,-4.3273,-4.3395,-4.342,-4.3435,-4.3481,-4.3473,-4.3524,-4.3545,-4.3576,-4.3628,-4.3705,-4.3757,-4.3831,-4.3982,-4.3993,-4.405,-4.4069,-4.4084,-4.41,-4.4182,-4.4207,-4.3933,-4.3933,-4.3932,0,0,-4.3227,-4.3263,-4.3314,-4.3412,-4.3449,-4.3533,-4.3453,-4.3545,-4.3607,-4.3559,-4.3678,-4.3703,-4.376,-4.3898,-4.3961,-4.3924,-4.4178,-4.41,-4.4112,-4.4119,-4.4197,-4.4223,-4.4246,-4.3941,-4.3939,-4.3938,0,0,-4.3401,-4.3436,-4.3541,-4.3579,-4.3636,-4.3645,-4.3671,-4.3721,-4.3734,-4.3853,-4.3819,-4.3893,-4.4028,-4.407,-4.4109,-4.4298,-4.4268,-4.4322,-4.4421,-4.45,-4.4522,-4.4541,-4.4609,-4.4633,-4.4337,-4.4338,-4.4338,0,-4.3483,-4.3607,-4.3598,-4.3693,-4.3736,-4.3695,-4.3802,-4.384,-4.3919,-4.3951,-4.3908,-4.4075,-4.4111,-4.4259,-4.4305,-4.4338,-4.4367,-4.4316,-4.4519,-4.4538,-4.4556,-4.4621,-4.4646,-4.4344,-4.4343,-4.4342,-4.4342,0,-4.3705,-4.3791,-4.3869,-4.3945,-4.3998,-4.4098,-4.4105,-4.416,-4.4147,-4.4161,-4.4283,-4.4324,-4.4405,-4.444,-4.4429,-4.4586,-4.4561,-4.4519,-4.4443,-4.4589,-4.4649,-4.4674,-4.4352,-4.435,-4.4348,-4.4347,0,0,-4.3933,-4.4002,-4.4031,-4.4065,-4.4124,-4.4192,-4.429,-4.4368,-4.4415,-4.4471,-4.4553,-4.4668,-4.4629,-4.4673,-4.4667,-4.4737,-4.4884,-4.4686,-4.4687,-4.4722,-4.506,-4.5091,-4.512,-4.4864,-4.4869,-4.4873,-4.5055,0,-4.4111,-4.4281,-4.4276,-4.4436,-4.4515,-4.4477,-4.4563,-4.4609,-4.4625,-4.4695,-4.4712,-4.4794,-4.4736,-4.4762,-4.483,-4.4852,-4.4952,-4.4838,-4.4942,-4.4946,-4.4929,-4.5151,-4.5185,-4.5355,-4.5078,-4.5082,-4.5085,0,-4.4341,-4.4402,-4.457,-4.4617,-4.465,-4.4727,-4.4798,-4.4866,-4.4918,-4.4924,-4.4973,-4.4956,-4.5056,-4.4977,-4.5115,-4.5038,-4.508,-4.5097,-4.5104,-4.5114,-4.5025,-4.5168,-4.5409,-4.5435,-4.5122,-4.5119,-4.5117,0,-4.449,-4.4616,-4.4732,-4.4762,-4.482,-4.4875,-4.4902,-4.4949,-4.4996,-4.5058,-4.5089,-4.5163,-4.5204,-4.5261,-4.5264,-4.5206,-4.5405,-4.5325,-4.5413,-4.5414,-4.5457,-4.5455,-4.571,-4.5484,-4.5484,-4.5483,-4.5483,0,-4.4689,-4.4793,-4.48,-4.4871,-4.4986,-4.498,-4.5094,-4.5116,-4.5158,-4.5233,-4.5205,-4.5277,-4.5276,-4.535,-4.5353,-4.5467,-4.5486,-4.5494,-4.5494,-4.5497,-4.5496,-4.5525,-4.5514,-4.549,-4.5489,-4.5487,-4.5486,0,-4.4876,-4.4885,-4.5009,-4.5053,-4.5067,-4.515,-4.5188,-4.5257,-4.5269,-4.5365,-4.5387,-4.5407,-4.5492,-4.55,-4.5599,-4.5601,-4.574,-4.5727,-4.5722,-4.572,-4.5808,-4.5799,-4.609,-4.6128,-4.5878,-4.588,-4.5882,0,-4.5003,-4.5081,-4.5134,-4.5182,-4.5211,-4.5289,-4.5337,-4.5333,-4.5384,-4.5449,-4.551,-4.5591,-4.5657,-4.5794,-4.5818,-4.5894,-4.5883,-4.5979,-4.5894,-4.5894,-4.5884,-4.588,-4.5888,-4.5996,-4.5999,-4.6001,-4.6003,0,-4.5226,-4.5226,-4.5295,-4.5366,-4.5424,-4.548,-4.5532,-4.5573,-4.5576,-4.5635,-4.5721,-4.5771,-4.5871,-4.5953,-4.6027,-4.6056,-4.6031,-4.6029,-4.6054,-4.6058,-4.6052,-4.6057,-4.5768,-4.6023,-4.6021,-4.6019,-4.6018,-4.6017,-4.5387,-4.5455,-4.5502,-4.558,-4.5619,-4.5668,-4.5734,-4.5755,-4.5826,-4.5906,-4.59,-4.5995,-4.6045,-4.6141,-4.6176,-4.625,-4.6218,-4.6254,-4.6263,-4.6271,-4.628,-4.604,-4.6264,-4.6263,-4.6263,-4.6262,-4.6262,0,-4.5609,-4.5637,-4.5709,-4.5782,-4.5844,-4.5813,-4.5869,-4.5923,-4.6006,-4.6054,-4.6119,-4.6217,-4.6296,-4.6326,-4.6404,-4.6458,-4.6448,-4.6479,-4.6475,-4.6482,-4.6305,-4.6276,-4.6485,-4.6485,-4.6485,-4.6485,-4.6485,-4.6485,-4.5731,-4.5845,-4.5851,-4.5983,-4.6011,-4.6103,-4.6137,-4.6183,-4.6221,-4.6332,-4.6397,-4.6416,-4.6457,-4.6537,-4.6608,-4.6615,-4.6645,-4.6681,-4.6683,-4.6517,-4.6494,-4.6473,-4.6446,-4.6687,-4.6687,-4.6853,-4.6855,-4.6856]},{"header":{"parameterUnit":"m.s-1","parameterCategory":1,"la1":30.2991,"la2":30.254,"lo1":-89.0895,"lo2":-89.0444,"dy":0.0017,"dx":0.0017,"nx":28,"ny":28,"refTime":"2025-08-09T03:00:00:Z","depth":0,"parameterNumber":3,"parameterNumberName":"V-component_of_WINDS"},"data":[0,0,0,0,0,0,0,0,0,0,0,0,0,0,0,0,0,0,0,0,0,0,0,0,0,0,0,0,0,0,0,0,0,0,0,0,0,0,0,0,0,0,0,0,0,0,0,0,0,0,0,0,0,0,0,0,0,0,-0.8049,-0.8049,0,-0.8,-0.8,-0.7999,-0.7979,-0.798,-0.798,-0.798,-0.7929,-0.7928,-0.7926,0,0,0,0,0,0,0,0,0,0,0,0,0,-0.8124,-0.8123,-0.8049,-0.8049,-0.8048,-0.8,-0.8,-0.7999,-0.7979,-0.798,-0.798,-0.798,-0.793,-0.7928,-0.7926,0,0,0,0,0,0,0,0,0,0,0,0,0,-0.8085,-0.8123,-0.8049,-0.8032,-0.803,-0.8001,-0.8,-0.7999,-0.7979,-0.798,-0.798,-0.798,-0.793,-0.7928,-0.7926,-0.7909,0,0,-0.7919,-0.7918,0,0,0,0,0,0,0,0,-0.8088,-0.8083,-0.8036,-0.8034,-0.8031,-0.7996,-0.8008,-0.7969,-0.7979,-0.7999,-0.798,-0.798,-0.7951,-0.7948,-0.7938,-0.7907,-0.7905,-0.7919,-0.7918,-0.7917,-0.7916,0,0,0,0,0,0,0,-0.809,-0.8084,-0.803,-0.8035,-0.8032,-0.8027,-0.8022,-0.8,-0.7975,-0.7997,-0.7996,-0.799,-0.795,-0.794,-0.7937,-0.7904,-0.7919,-0.7917,-0.7916,-0.7915,-0.7856,-0.7856,0,0,0,0,0,0,-0.8096,-0.8087,-0.8031,-0.8028,-0.806,-0.8026,-0.8019,-0.8007,-0.7975,-0.797,-0.799,-0.7989,-0.7944,-0.7939,-0.7935,-0.7913,-0.7917,-0.7915,-0.7914,-0.7856,-0.7856,-0.7856,0,0,0,0,0,0,-0.8098,-0.8091,-0.8033,-0.8057,-0.8049,-0.8024,-0.801,-0.8006,-0.7996,-0.797,-0.7965,-0.7984,-0.7944,-0.7938,-0.7916,-0.7911,-0.7914,-0.7912,-0.7857,-0.7856,-0.7856,-0.7868,0,0,0,0,0,0,-0.81,-0.8092,-0.8085,-0.8057,-0.8048,-0.8015,-0.801,-0.8005,-0.7992,-0.7991,-0.7963,-0.7958,-0.7943,-0.7919,-0.7913,-0.7908,-0.791,-0.7857,-0.7856,-0.7856,-0.7868,-0.7868,-0.7869,0,0,0,0,0,-0.8103,-0.8091,-0.8085,-0.8079,-0.804,-0.8015,-0.801,-0.7993,-0.7992,-0.7985,-0.7968,-0.7959,-0.7912,-0.7917,-0.791,-0.7904,-0.7857,-0.7856,-0.7856,-0.7868,-0.7868,-0.7869,0,0,0,0,0,0,-0.8119,-0.8087,-0.808,-0.8059,-0.804,-0.8012,-0.8003,-0.7994,-0.7974,-0.7974,-0.7954,-0.7947,-0.7927,-0.7913,-0.7919,-0.7886,-0.7884,-0.7882,-0.7895,-0.7895,-0.7895,-0.7899,-0.7909,0,0,0,0,0,-0.8121,-0.8104,-0.8076,-0.806,-0.8051,-0.8029,-0.8017,-0.8006,-0.7985,-0.7977,-0.7958,-0.7938,-0.7918,-0.7906,-0.7887,-0.7866,-0.786,-0.7858,-0.7859,-0.7859,-0.7857,-0.7845,-0.7844,-0.7854,-0.7854,-0.7854,0,0,-0.8123,-0.8103,-0.8094,-0.8063,-0.8047,-0.8029,-0.8022,-0.8004,-0.799,-0.7974,-0.7952,-0.7937,-0.7914,-0.7892,-0.7882,-0.788,-0.7853,-0.7858,-0.7858,-0.7857,-0.7844,-0.7844,-0.7843,-0.7853,-0.7853,-0.7853,0,0,-0.8119,-0.8102,-0.8087,-0.8071,-0.8046,-0.8031,-0.8027,-0.8,-0.799,-0.7968,-0.7955,-0.7938,-0.7905,-0.7889,-0.7876,-0.7865,-0.7856,-0.7859,-0.786,-0.7848,-0.7847,-0.7846,-0.7842,-0.7841,-0.7858,-0.7858,-0.7858,0,-0.8125,-0.8098,-0.808,-0.8062,-0.8049,-0.8033,-0.8017,-0.8002,-0.7973,-0.7964,-0.7962,-0.792,-0.7903,-0.7877,-0.7875,-0.7865,-0.786,-0.7862,-0.7849,-0.7848,-0.7847,-0.7843,-0.7841,-0.7858,-0.7858,-0.7858,-0.7858,0,-0.8107,-0.8088,-0.8079,-0.805,-0.8036,-0.8019,-0.7999,-0.7986,-0.7976,-0.7961,-0.7938,-0.7917,-0.7892,-0.7885,-0.7875,-0.7858,-0.7858,-0.7853,-0.7851,-0.7847,-0.7842,-0.7841,-0.7859,-0.7859,-0.7859,-0.7858,0,0,-0.8112,-0.8073,-0.807,-0.8057,-0.8028,-0.8014,-0.7996,-0.7972,-0.7962,-0.7942,-0.7926,-0.7899,-0.7894,-0.7879,-0.7867,-0.7857,-0.7849,-0.7853,-0.7852,-0.7853,-0.7828,-0.7832,-0.783,-0.7843,-0.7842,-0.7842,-0.783,0,-0.8103,-0.8071,-0.8054,-0.8029,-0.8012,-0.7996,-0.7981,-0.7961,-0.7947,-0.793,-0.7913,-0.7894,-0.7889,-0.788,-0.7869,-0.7852,-0.7843,-0.7853,-0.7828,-0.7827,-0.7834,-0.7828,-0.7832,-0.7822,-0.7828,-0.7828,-0.7828,0,-0.8089,-0.8069,-0.8043,-0.8016,-0.8008,-0.7994,-0.7971,-0.7955,-0.7932,-0.7922,-0.7906,-0.7894,-0.7874,-0.7873,-0.7846,-0.7853,-0.7842,-0.7831,-0.7831,-0.7828,-0.7827,-0.7825,-0.7819,-0.7817,-0.7825,-0.7825,-0.7825,0,-0.8096,-0.8062,-0.8042,-0.8031,-0.7999,-0.799,-0.7976,-0.7953,-0.794,-0.792,-0.7911,-0.7889,-0.7876,-0.7859,-0.7841,-0.7842,-0.7815,-0.7813,-0.7807,-0.7807,-0.7802,-0.7802,-0.7794,-0.7795,-0.7795,-0.7795,-0.7795,0,-0.8088,-0.8072,-0.8044,-0.8031,-0.8013,-0.7993,-0.7976,-0.7961,-0.7941,-0.7925,-0.791,-0.7895,-0.7872,-0.7854,-0.784,-0.782,-0.7814,-0.7805,-0.7802,-0.7807,-0.7808,-0.7799,-0.7799,-0.7794,-0.7794,-0.7794,-0.7794,0,-0.8092,-0.8073,-0.8049,-0.8021,-0.8013,-0.8001,-0.7976,-0.7963,-0.7948,-0.7928,-0.7922,-0.7897,-0.7876,-0.7856,-0.7827,-0.7818,-0.7797,-0.7792,-0.7804,-0.7802,-0.7797,-0.7798,-0.7782,-0.7779,-0.7783,-0.7783,-0.7783,0,-0.8089,-0.8076,-0.8046,-0.8034,-0.8021,-0.8002,-0.7988,-0.7968,-0.7954,-0.7928,-0.7918,-0.7895,-0.7876,-0.7842,-0.7822,-0.78,-0.7794,-0.779,-0.7791,-0.7796,-0.7794,-0.7795,-0.7794,-0.7791,-0.7791,-0.7791,-0.7791,0,-0.8084,-0.8075,-0.8056,-0.8033,-0.8017,-0.7999,-0.7979,-0.797,-0.7946,-0.7932,-0.7909,-0.7895,-0.7865,-0.7843,-0.7818,-0.7804,-0.7793,-0.7791,-0.7788,-0.7793,-0.7801,-0.7796,-0.7805,-0.7791,-0.7791,-0.7791,-0.7791,-0.7791,-0.8084,-0.8072,-0.8049,-0.8028,-0.8011,-0.7994,-0.798,-0.7963,-0.7944,-0.7918,-0.7907,-0.7884,-0.7862,-0.7828,-0.7813,-0.7795,-0.7793,-0.7789,-0.7788,-0.7788,-0.7788,-0.7804,-0.7791,-0.7791,-0.7791,-0.7791,-0.7791,0,-0.8079,-0.8063,-0.8044,-0.8018,-0.8001,-0.7992,-0.797,-0.7957,-0.7937,-0.7917,-0.7898,-0.7872,-0.785,-0.7828,-0.7805,-0.7795,-0.7789,-0.7789,-0.779,-0.7787,-0.7792,-0.7796,-0.7794,-0.7794,-0.7794,-0.7794,-0.7794,-0.7794,-0.8075,-0.8054,-0.8042,-0.8012,-0.7996,-0.7974,-0.7962,-0.7945,-0.7929,-0.7901,-0.7882,-0.7868,-0.7847,-0.7822,-0.7801,-0.7795,-0.7787,-0.7789,-0.7781,-0.7787,-0.7786,-0.7786,-0.7791,-0.7787,-0.7787,-0.7778,-0.7778,-0.7778]}]]